Weather Roundup
Issued by NWS Springfield, MO

Home | Current Version | Previous Version | Text Only | Print | Product List | Glossary On
Versions: 1 2 3 4 5 6 7 8 9 10 11 12 13 14 15 16 17 18 19 20 21 22 23 24 25 26 27 28 29 30 31 32 33 34 35 36 37 38 39 40 41 42 43 44 45 46 47 48 49 50
057
NZUS99 KSGF 221207
HRRSGF

HOURLY WEATHER
NATIONAL WEATHER SERVICE SPRINGFIELD MO
700 AM CDT FRI MAY 22 2015

......SGF CWA......

CITY           SKY/WX    TMP DP  RH WIND       PRES   REMARKS
SPRINGFIELD    SUNNY     48  43  82 SE7       30.25R
6HR MIN TEMP:  42; 6HR MAX TEMP:  48;

JOPLIN         CLOUDY    49  45  86 SE6       30.25R
6HR MIN TEMP:  44; 6HR MAX TEMP:  49;

WEST PLAINS    SUNNY     47  43  86 CALM      30.29R
6HR MIN TEMP:  39; 6HR MAX TEMP:  47;

ROLLA          SUNNY     46  43  89 SW8       30.25R
6HR MIN TEMP:  42; 6HR MAX TEMP:  47;

OSAGE BEACH    SUNNY     43  39  87 CALM      30.27R
BRANSON        MOSUNNY   46  46 100 CALM      30.27R

......SURROUNDING SGF CWA......

CITY           SKY/WX    TMP DP  RH WIND       PRES   REMARKS
CHANUTE        CLOUDY    49  47  93 SE3       30.24R
PARSONS        CLOUDY    51  49  92 CALM      30.25R
COFFEYVILLE    CLOUDY    51  49  92 CALM      30.24R
EMPORIA        CLOUDY    48  47  96 CALM      30.23R
GROVE OK       CLOUDY    50  50 100 CALM      30.26R
ROGERS AR      PTCLDY    50  48  93 SE6       30.26R
SILOAM SPRINGS PTCLDY    46  41  81 SE5       30.27R
HARRISON AR    MOSUNNY   45  44  97 SE6       30.27R
NEAR YELLVILLE MOSUNNY   45  43  93 CALM      30.27R

......KANSAS AND MISSOURI......

CITY           SKY/WX    TMP DP  RH WIND       PRES   REMARKS
KANSAS CTY INT PTCLDY    53  48  83 NE3       30.23R
DOWNTOWN KC    PTCLDY    53  50  89 CALM      30.23R
COLUMBIA       SUNNY     52  45  77 W6        30.25R
SEDALIA        SUNNY     51  45  79 SW6       30.25S
ST JOSEPH      PTCLDY    49  47  93 CALM      30.23S
ST LOUIS       MOSUNNY   55  44  66 W7        30.23R
SPIRIT OF STL  SUNNY     51  47  86 W5        30.23R
KIRKSVILLE     SUNNY     53  45  74 W6        30.22R
WICHITA        CLOUDY    52  48  86 SW6       30.27R
TOPEKA         CLOUDY    49  47  93 SE3       30.21F
OLATHE         PTCLDY    50  47  89 CALM      30.22S

......TENNESSEE......

CITY           SKY/WX    TMP DP  RH WIND       PRES   REMARKS
MEMPHIS        MOSUNNY   52  47  83 CALM      30.29R
NASHVILLE      MOSUNNY   50  45  83 CALM      30.28R

......ARKANSAS.......

CITY           SKY/WX    TMP DP  RH WIND       PRES   REMARKS
FAYETTEVILLE   PTCLDY    45  45 100 MISG      30.26R
FT SMITH       CLEAR     53  50  89 E6        30.26R
LITTLE ROCK    PTSUNNY   54  49  83 NE3       30.29R

......OKLAHOMA.......

CITY           SKY/WX    TMP DP  RH WIND       PRES   REMARKS
TULSA          CLOUDY    53  51  93 SE6       30.23R
PONCA CITY     CLOUDY    54  50  86 NE3       30.24R
MCALESTER      PTCLDY    54  52  93 SE3       30.23R
OKLAHOMA CITY  LGT RAIN  54  50  86 E6        30.20R

......IOWA............

CITY           SKY/WX    TMP DP  RH WIND       PRES   REMARKS
DES MOINES     MOSUNNY   53  42  66 NW5       30.19R
QUAD CITIES    SUNNY     50  44  80 CALM      30.16R

......ILLINOIS........

CITY           SKY/WX    TMP DP  RH WIND       PRES   REMARKS
QUINCY         SUNNY     54  44  69 W6        30.19R
CHICAGO        SUNNY     51  39  63 NE6       30.15R




USA.gov is the U.S. government's official web portal to all federal, state and local government web resources and services.